Location: Fort Wayne
(41.1310°N, 85.1290°W)
Time: 12:18:05
(UTC-04:00)

Amateur Radio Satellites - All Passes

Search period start: 18 April 2014 11:48
Search period end: 19 April 2014 11:48
Location: Fort Wayne, 41.1310°N, 85.1290°W

Satellite Date Start Highest point End Downlink Frequencies (MHz)
Time Altitude Azimuth
Sapphire 18 Apr 11:54:00 11:59:05 42° 248° (WSW) 12:04:07 437.095 MHz 1200 baud AX-25 AFSK
FUNcube-1 18 Apr 12:18:09 12:22:25 82° 103° (ESE) 12:26:45 145.950 - 145.970 MHz USB
Saudisat 1A 18 Apr 12:20:11 12:24:37 68° 120° (ESE) 12:29:04 436.775 MHz
PANSAT 18 Apr 12:21:05 12:22:43 12° 183° (S) 12:24:21 not established
Oscar 11 18 Apr 12:32:47 12:36:14 23° 293° (WNW) 12:39:40 145.825 FM, Beacon 2401.500 USB
PCSat 18 Apr 12:40:30 12:43:42 16° 256° (WSW) 12:46:53 145.825 MHz
HO-68 18 Apr 12:43:33 12:49:00 24° 302° (WNW) 12:54:27 435.675 MHz FM
Oscar 19 18 Apr 13:07:35 13:10:36 16° 61° (ENE) 13:13:37 437.125 CW, 437.150 USB
Oscar 16 18 Apr 13:14:54 13:18:32 20° 63° (ENE) 13:22:11 437.025 USB, Beacon 2401.1428
RS-15 18 Apr 13:30:06 13:37:45 21° 9° (N) 13:45:24 29.354 - 29.394 USB, Beacon 29.352 USB
KITSAT 1 18 Apr 13:34:02 13:42:09 79° 243° (WSW) 13:50:11 435.175 FM
Uribyol 2 18 Apr 13:47:41 13:51:30 21° 64° (ENE) 13:55:19 436.500 FM
Saudisat 1A 18 Apr 14:01:41 14:04:40 17° 319° (NW) 14:07:40 436.775 MHz
Gurwin Techsat 1B 18 Apr 14:15:16 14:17:02 12° 58° (ENE) 14:18:49 435.225 FM
AO-27 18 Apr 14:25:55 14:30:50 45° 70° (ENE) 14:35:46 436.795 MHz FM
ITAMSAT 1 18 Apr 14:36:47 14:41:50 56° 72° (ENE) 14:46:54 435.822 SSB
Oscar 19 18 Apr 14:44:16 14:49:21 68° 258° (WSW) 14:54:31 437.125 CW, 437.150 USB
Oscar 16 18 Apr 14:52:29 14:57:28 53° 260° (W) 15:02:31 437.025 USB, Beacon 2401.1428
AO-Echo 18 Apr 14:55:29 15:00:42 67° 74° (ENE) 15:05:49 ?
TMSAT-1 18 Apr 15:01:37 15:05:37 22° 64° (ENE) 15:09:37 436.925 FM
JAS-1B 18 Apr 15:02:58 15:08:00 19° 60° (ENE) 15:12:33 435.800 - 435.900 CW/SSB
Uosat F 18 Apr 15:17:20 15:18:43 11° 58° (ENE) 15:20:06 435.120 FM
Uribyol 2 18 Apr 15:25:39 15:30:37 49° 260° (W) 15:35:38 436.500 FM
KITSAT 1 18 Apr 15:32:15 15:36:13 15° 261° (W) 15:40:11 435.175 FM
RS-15 18 Apr 15:43:54 15:54:09 43° 42° (NE) 16:04:32 29.354 - 29.394 USB, Beacon 29.352 USB
Gurwin Techsat 1B 18 Apr 15:50:51 15:56:10 84° 75° (ENE) 16:01:30 435.225 FM
AO-7 18 Apr 15:59:17 16:06:27 34° 58° (ENE) 16:13:36 29.400 - 29.500 MHz
OPAL 18 Apr 16:00:42 16:05:35 39° 100° (E) 16:10:26 ?
AO-27 18 Apr 16:06:35 16:10:33 22° 266° (W) 16:14:31 436.795 MHz FM
ITAMSAT 1 18 Apr 16:18:16 16:21:40 18° 268° (W) 16:25:05 435.822 SSB
SO-50 18 Apr 16:23:20 16:27:30 40° 116° (ESE) 16:31:43 436.795 FM
ISS 18 Apr 16:35:24 16:38:39 54° 140° (SE) 16:41:57 145.800 FM
AO-Echo 18 Apr 16:36:58 16:39:52 15° 269° (W) 16:42:46 ?
TMSAT-1 18 Apr 16:40:06 16:45:11 48° 261° (W) 16:50:19 436.925 FM
JAS-1B 18 Apr 16:49:41 16:58:02 85° 255° (WSW) 17:04:59 435.800 - 435.900 CW/SSB
Uosat F 18 Apr 16:51:40 16:56:42 86° 75° (ENE) 17:01:46 435.120 FM
Gurwin Techsat 1B 18 Apr 17:35:05 17:36:47 11° 272° (W) 17:38:28 435.225 FM
OPAL 18 Apr 17:39:55 17:44:16 27° 296° (WNW) 17:48:36 ?
AO-7 18 Apr 17:50:45 17:58:50 57° 257° (WSW) 18:06:59 29.400 - 29.500 MHz
RS-15 18 Apr 17:56:19 18:07:02 63° 245° (WSW) 18:18:03 29.354 - 29.394 USB, Beacon 29.352 USB
SO-50 18 Apr 18:04:29 18:08:12 25° 314° (NW) 18:11:57 436.795 FM
ISS 18 Apr 18:12:45 18:15:36 25° 338° (NNW) 18:18:27 145.800 FM
Uosat F 18 Apr 18:35:30 18:36:07 10° 271° (W) 18:36:45 435.120 FM
Hamsat 18 Apr 18:42:45 18:46:43 44° 73° (ENE) 18:50:45 145.90 MHz
JAS-1B 18 Apr 18:44:58 18:49:09 15° 269° (W) 18:53:03 435.800 - 435.900 CW/SSB
UOSAT-12 18 Apr 18:51:47 18:56:17 70° 120° (ESE) 19:00:55 437.025 FM, 437.400 FM
SO-67 18 Apr 19:14:25 19:16:31 15° 68° (ENE) 19:18:37 435.3500 MHz FM
JAS-2 18 Apr 19:35:41 19:41:26 56° 72° (ENE) 19:46:41 435.800 - 435.900 CW/SSB, 435.910 FM
HO-68 18 Apr 19:43:33 19:43:45 10° 47° (NE) 19:43:58 435.675 MHz FM
ISS 18 Apr 19:51:24 19:53:14 14° 358° (N) 19:55:03 145.800 FM
RS-15 18 Apr 20:14:06 20:17:02 11° 265° (W) 20:19:59 29.354 - 29.394 USB, Beacon 29.352 USB
STRAND 1 18 Apr 20:15:43 20:20:46 62° 102° (ESE) 20:25:48 ?
Hamsat 18 Apr 20:20:30 20:22:57 15° 269° (W) 20:25:26 145.90 MHz
UOSAT-12 18 Apr 20:33:48 20:36:57 18° 319° (NW) 20:40:08 437.025 FM, 437.400 FM
SO-67 18 Apr 20:46:18 20:49:25 30° 263° (W) 20:52:33 435.3500 MHz FM
Saudisat 1A 18 Apr 20:47:14 20:51:34 52° 53° (NE) 20:55:50 436.775 MHz
JAS-2 18 Apr 21:22:47 21:26:48 19° 266° (W) 21:30:37 435.800 - 435.900 CW/SSB, 435.910 FM
HO-68 18 Apr 21:23:00 21:29:51 52° 67° (ENE) 21:36:44 435.675 MHz FM
ISS 18 Apr 21:28:21 21:30:57 20° 18° (NNE) 21:33:32 145.800 FM
Oscar 11 18 Apr 21:51:43 21:55:15 25° 68° (ENE) 21:58:48 145.825 FM, Beacon 2401.500 USB
STRAND 1 18 Apr 21:56:16 21:59:27 17° 298° (WNW) 22:02:38 ?
MaSat-1 18 Apr 22:09:48 22:12:14 22° 112° (ESE) 22:14:26 437.345 MHz
Saudisat 1A 18 Apr 22:28:00 22:30:45 16° 250° (WSW) 22:33:28 436.775 MHz
ISS 18 Apr 23:04:42 23:08:04 89° 211° (SSW) 23:11:25 145.800 FM
HO-68 18 Apr 23:11:43 23:17:47 30° 265° (W) 23:23:55 435.675 MHz FM
FUNcube-1 18 Apr 23:14:46 23:18:56 64° 75° (ENE) 23:23:04 145.950 - 145.970 MHz USB
Oscar 11 18 Apr 23:27:38 23:31:20 28° 264° (W) 23:35:04 145.825 FM, Beacon 2401.500 USB
MaSat-1 18 Apr 23:49:31 23:50:38 12° 303° (WNW) 23:51:42 437.345 MHz
Sapphire 19 Apr 00:53:16 00:57:37 25° 108° (ESE) 01:01:59 437.095 MHz 1200 baud AX-25 AFSK
SO-50 19 Apr 00:54:49 00:59:09 38° 50° (NE) 01:03:33 436.795 FM
FUNcube-1 19 Apr 00:55:20 00:55:46 10° 270° (W) 00:56:12 145.950 - 145.970 MHz USB
PCSat 19 Apr 01:36:59 01:42:19 66° 115° (ESE) 01:47:42 145.825 MHz
UOSAT-12 19 Apr 01:43:34 01:45:00 11° 34° (NE) 01:46:25 437.025 FM, 437.400 FM
KITSAT 1 19 Apr 02:11:38 02:15:27 14° 99° (E) 02:19:16 435.175 FM
Oscar 10/S400 19 Apr 02:29:45 02:44:35 21° 130° (SE) 03:12:56 145.825 - 145.975 CW/USB, Beacon 145.810 USB
Sapphire 19 Apr 02:35:34 02:40:45 46° 305° (NW) 02:45:58 437.095 MHz 1200 baud AX-25 AFSK
SO-50 19 Apr 02:35:43 02:39:34 26° 247° (WSW) 02:43:27 436.795 FM
AO-27 19 Apr 02:40:16 02:43:24 16° 91° (E) 02:46:31 436.795 MHz FM
ITAMSAT 1 19 Apr 02:50:39 02:54:23 20° 93° (E) 02:58:07 435.822 SSB
Oscar 19 19 Apr 02:56:02 03:01:00 43° 99° (E) 03:05:55 437.125 CW, 437.150 USB
AO-Echo 19 Apr 03:04:05 03:07:33 20° 93° (E) 03:10:59 ?
Oscar 16 19 Apr 03:04:06 03:09:13 56° 100° (E) 03:14:19 437.025 USB, Beacon 2401.1428
OPAL 19 Apr 03:15:34 03:20:32 69° 71° (ENE) 03:25:37 ?
UOSAT-12 19 Apr 03:21:29 03:26:09 59° 54° (NE) 03:30:47 437.025 FM, 437.400 FM
PCSat 19 Apr 03:22:09 03:26:13 21° 315° (NW) 03:30:19 145.825 MHz
Uribyol 2 19 Apr 03:38:13 03:43:21 60° 101° (E) 03:48:27 436.500 FM
KITSAT 1 19 Apr 04:01:25 04:09:29 77° 117° (ESE) 04:17:37 435.175 FM
Gurwin Techsat 1B 19 Apr 04:07:31 04:12:19 34° 97° (E) 04:17:06 435.225 FM
AO-27 19 Apr 04:18:12 04:23:19 61° 288° (WNW) 04:28:24 436.795 MHz FM
ITAMSAT 1 19 Apr 04:29:10 04:34:09 49° 289° (WNW) 04:39:06 435.822 SSB
Oscar 19 19 Apr 04:35:58 04:40:04 24° 295° (WNW) 04:44:09 437.125 CW, 437.150 USB
JAS-1B 19 Apr 04:35:59 04:40:11 21° 93° (E) 04:44:30 435.800 - 435.900 CW/SSB
AO-Echo 19 Apr 04:42:02 04:46:33 41° 290° (WNW) 04:50:57 ?
Oscar 16 19 Apr 04:44:32 04:48:08 19° 297° (WNW) 04:51:44 437.025 USB, Beacon 2401.1428
TMSAT-1 19 Apr 04:55:46 05:01:03 69° 102° (ESE) 05:06:19 436.925 FM
OPAL 19 Apr 04:57:24 04:59:55 14° 268° (W) 05:02:28 ?
Uosat F 19 Apr 05:00:05 05:04:16 26° 95° (E) 05:08:25 435.120 FM
UOSAT-12 19 Apr 05:02:54 05:05:50 17° 251° (WSW) 05:08:45 437.025 FM, 437.400 FM
Uribyol 2 19 Apr 05:18:57 05:22:20 18° 298° (WNW) 05:25:44 436.500 FM
Gurwin Techsat 1B 19 Apr 05:47:36 05:52:12 31° 293° (WNW) 05:56:46 435.225 FM
AO-7 19 Apr 05:52:06 06:00:10 51° 102° (ESE) 06:08:11 29.400 - 29.500 MHz
STRAND 1 19 Apr 05:56:34 05:58:18 12° 58° (ENE) 06:00:01 ?
KITSAT 1 19 Apr 05:58:49 06:05:42 29° 319° (NW) 06:12:37 435.175 FM
RS-15 19 Apr 06:11:13 06:18:50 21° 100° (E) 06:26:16 29.354 - 29.394 USB, Beacon 29.352 USB
JAS-1B 19 Apr 06:25:47 06:31:13 48° 290° (WNW) 06:36:47 435.800 - 435.900 CW/SSB
TMSAT-1 19 Apr 06:37:12 06:40:24 16° 299° (WNW) 06:43:35 436.925 FM
Uosat F 19 Apr 06:38:34 06:43:06 35° 292° (WNW) 06:47:36 435.120 FM
STRAND 1 19 Apr 07:31:35 07:36:42 88° 75° (ENE) 07:41:51 ?
AO-7 19 Apr 07:45:17 07:52:42 38° 300° (WNW) 08:00:07 29.400 - 29.500 MHz
KITSAT 1 19 Apr 08:01:42 08:04:25 12° 347° (NNW) 08:07:08 435.175 FM
Hamsat 19 Apr 08:04:14 08:08:36 86° 284° (WNW) 08:12:58 145.90 MHz
MaSat-1 19 Apr 08:10:21 08:13:20 87° 242° (WSW) 08:16:52 437.345 MHz
SO-67 19 Apr 08:11:19 08:13:47 18° 94° (E) 08:16:13 435.3500 MHz FM
RS-15 19 Apr 08:18:14 08:29:37 88° 120° (ESE) 08:40:39 29.354 - 29.394 USB, Beacon 29.352 USB
JAS-2 19 Apr 08:28:30 08:33:43 48° 100° (E) 08:39:25 435.800 - 435.900 CW/SSB, 435.910 FM
PCSat 19 Apr 08:44:34 08:45:36 11° 35° (NE) 08:46:39 145.825 MHz
STRAND 1 19 Apr 09:16:07 09:16:33 10° 272° (W) 09:16:59 ?
Sapphire 19 Apr 09:40:39 09:44:58 23° 47° (NE) 09:49:14 437.095 MHz 1200 baud AX-25 AFSK
SO-67 19 Apr 09:44:01 09:46:56 25° 289° (WNW) 09:49:50 435.3500 MHz FM
KITSAT 1 19 Apr 10:00:30 10:04:18 14° 19° (NNE) 10:08:05 435.175 FM
JAS-2 19 Apr 10:14:29 10:18:35 23° 295° (WNW) 10:22:57 435.800 - 435.900 CW/SSB, 435.910 FM
PANSAT 19 Apr 10:17:57 10:18:49 11° 171° (S) 10:19:40 not established
PCSat 19 Apr 10:25:03 10:30:21 51° 56° (NE) 10:35:37 145.825 MHz
RS-15 19 Apr 10:33:45 10:43:26 33° 326° (NNW) 10:53:00 29.354 - 29.394 USB, Beacon 29.352 USB
HO-68 19 Apr 10:37:59 10:45:00 54° 101° (ESE) 10:52:00 435.675 MHz FM
Saudisat 1A 19 Apr 10:56:00 10:58:14 14° 109° (ESE) 11:00:29 436.775 MHz
FUNcube-1 19 Apr 11:05:52 11:07:39 12° 91° (E) 11:09:26 145.950 - 145.970 MHz USB
Oscar 11 19 Apr 11:14:40 11:18:56 51° 100° (E) 11:23:10 145.825 FM, Beacon 2401.500 USB
Sapphire 19 Apr 11:23:27 11:28:46 58° 246° (WSW) 11:34:02 437.095 MHz 1200 baud AX-25 AFSK
